Вернуться в каталог

STARLINK-36715

АктивенСвязьSSO
NORAD 67716·PAYLOAD·🇺🇸 United States

Запущен Feb 7, 2026 с Vandenberg Space Force Base

Loading…

Ближайшие Пролёты (ближайшие 24 часа)

TLE

СвежийSource: CelesTrak SupGP

Эпоха: Sep 14, 2026, 22:28 UTC

1 67716C 26025Z   26257.93659722 -.00035535  00000+0 -11028-2 0  2570
2 67716  97.2857   7.8523 0001132 108.9312  72.7893 15.33465359    14

Отслеживайте STARLINK-36715 в реальном времени с AllMySat

Download on the App Store